OREBRO PRIVATE current weather conditions

sailwx.info

Wind from 130 at 7 knots

Air temperature 1.0° C
Visibility: greater than 2.2 NM
Dewpoint 1.0° C
Present weather: Rain.

Last reported at 2015-Mar-29 07:20 UTC.
Time now 2015-Mar-29 09:21 UTC

Location: N 59°14' E 015°03'.
View on Google Maps.

See reports from other nearby stations

  
Tides and Currents Weather Stations Pressure Air Temp Water Temp Dewpoint Dewpoint Depression Visibility Wind Speed Wind Dir Waves Ship Positions
date/time (UTC)wind fromknots sea level pressurealtimeterstation pressurevisibilityair tempwater tempwave heightnotes
2015-Mar-29 08:20 130 9 5.4 2.0 Light rain.
2015-Mar-29 07:50 130 9 5.4 2.0
2015-Mar-29 07:20 130 7 2.2 1.0 Rain.
2015-Mar-29 06:50 120 6 2.2 1.0 Light snow.
2015-Mar-29 06:20 130 8 2.0 1.0 Light rain.
2015-Mar-29 05:50 130 8 2.5 2.0 Light rain snow.
2015-Mar-29 05:20 130 8 2.7 2.0 Light rain snow.
2015-Mar-29 04:50 130 10 4.3 2.0 Light rain snow.
2015-Mar-29 04:20 130 9 4.9 2.0 Light rain snow.
2015-Mar-29 03:50 130 8 5.4 2.0 Light drizzle.
2015-Mar-29 03:20 130 10 5.4 2.0 Light drizzle.
2015-Mar-29 02:50 140 9 4.9 3.0 Light rain.
2015-Mar-29 02:20 150 8 5.4 3.0 Drizzle.
2015-Mar-29 01:50 160 12 5.4 3.0 Light rain.
2015-Mar-29 01:20 150 9 5.4 3.0
2015-Mar-29 00:50 130 8 5.4 4.0
2015-Mar-29 00:20 130 9 5.4 3.0
2015-Mar-28 23:50 140 7 5.4 3.0
2015-Mar-28 23:20 130 5 5.4 3.0
2015-Mar-28 22:50 130 5 5.4 3.0
2015-Mar-28 22:20 160 4 5.4 3.0
2015-Mar-28 21:50 210 4 5.4 2.0
2015-Mar-28 21:20 190 6 5.4 2.0
2015-Mar-28 20:50 170 7 5.4 3.0
2015-Mar-28 20:20 130 5 5.4 4.0
2015-Mar-28 19:50 120 5 5.4 3.0
2015-Mar-28 19:20 120 5 5.4 4.0
2015-Mar-28 18:50 130 6 5.4 4.0
2015-Mar-28 18:20 130 5 5.4 3.0
2015-Mar-28 17:50 150 3 5.4 3.0
2015-Mar-28 17:20 5.4 5.0
2015-Mar-28 16:50 230 3 5.4 6.0
2015-Mar-28 16:20 220 7 5.4 7.0
2015-Mar-28 15:50 210 7 5.4 8.0
2015-Mar-28 15:20 220 8 5.4 8.0
2015-Mar-28 14:50 200 9 8.0
2015-Mar-28 14:20 230 9 8.0
2015-Mar-28 13:50 200 8 7.0
2015-Mar-28 13:20 210 7 5.4 7.0
2015-Mar-28 12:50 200 6 5.4 7.0
2015-Mar-28 12:20 230 6 5.4 6.0
2015-Mar-28 11:50 270 7 4.9 6.0
2015-Mar-28 11:20 270 7 5.4 4.0
2015-Mar-28 10:50 270 8 5.4 4.0
2015-Mar-28 10:20 280 8 5.4 4.0
2015-Mar-28 09:50 280 9 5.4 3.0
2015-Mar-28 09:20 270 8 5.4 3.0
2015-Mar-28 08:50 260 7 5.4 3.0
2015-Mar-28 08:20 260 6 5.4 3.0
2015-Mar-28 07:50 270 6 5.4 2.0
2015-Mar-28 07:20 270 6 5.4 2.0
2015-Mar-28 06:50 270 7 5.4 3.0
2015-Mar-28 06:20 270 8 5.4 2.0
2015-Mar-28 05:50 270 7 5.4 2.0
2015-Mar-28 05:20 280 7 5.4 2.0
2015-Mar-28 04:50 280 9 5.4 3.0
2015-Mar-28 04:20 270 7 5.4 3.0
2015-Mar-28 03:50 270 6 5.4 3.0
2015-Mar-28 03:20 240 5 5.4 3.0
2015-Mar-28 02:50 220 5 5.4 2.0
2015-Mar-28 02:20 230 5 5.4 3.0
2015-Mar-28 01:50 240 6 5.4 2.0
2015-Mar-28 01:20 240 5 5.4 2.0
2015-Mar-28 00:50 230 5 5.4 2.0
2015-Mar-28 00:20 240 5 5.4 2.0
2015-Mar-27 23:50 210 4 5.4 2.0
2015-Mar-27 23:20 230 5 5.4 3.0
2015-Mar-27 22:50 250 5 5.4 3.0
2015-Mar-27 22:20 250 6 5.4 3.0
2015-Mar-27 21:50 240 7 5.4 2.0
2015-Mar-27 21:20 240 7 5.4 2.0
2015-Mar-27 20:50 240 8 3.0
2015-Mar-27 20:20 230 6 3.0
2015-Mar-27 19:50 220 6 5.4 3.0
2015-Mar-27 19:20 220 5 5.4 3.0
2015-Mar-27 18:50 220 4 3.0
2015-Mar-27 18:20 250 5 4.0
2015-Mar-27 17:50 240 5 5.4 4.0
2015-Mar-27 17:20 240 5 5.4 5.0
2015-Mar-27 16:50 250 7 5.4 6.0
2015-Mar-27 16:20 260 5 5.4 5.0
2015-Mar-27 15:50 270 5 5.4 5.0
2015-Mar-27 15:20 260 9 5.4 5.0
2015-Mar-27 14:50 270 10 5.4 5.0
2015-Mar-27 14:20 250 9 5.4 5.0
2015-Mar-27 13:50 260 9 5.4 5.0
2015-Mar-27 13:20 250 9 5.4 6.0
2015-Mar-27 12:50 270 9 5.4 6.0
2015-Mar-27 12:20 240 9 5.4 6.0
2015-Mar-27 11:50 250 7 5.4 6.0
2015-Mar-27 11:20 270 10 5.4 6.0
2015-Mar-27 10:50 270 9 5.4 6.0
2015-Mar-27 10:20 270 7 5.4 5.0
2015-Mar-27 09:50 260 7 5.4 5.0
2015-Mar-27 09:20 280 5 5.4 5.0